Lahr, Germany

1:06 AM CET on November 19, 2019 (GMT +0100)
Lahr

Weather History for EDTL - September, 2019

Change the Weather History Date:

Tuesday, September 17, 2019

  Actual Average (WUND) Record (WUND)
Temperature  
Mean Temperature 62 °F -  
Max Temperature 68 °F - - (-1)
Min Temperature 55 °F - - (-1)
Degree Days  
Heating Degree Days 4    
Growing Degree Days 12 (Base 50)    
Moisture  
Dew Point 53 °F    
Average Humidity 71    
Maximum Humidity 88    
Minimum Humidity 54    
Precipitation  
Precipitation 0.00 in - - ()
Sea Level Pressure  
Sea Level Pressure 30.12 in    
Wind  
Wind Speed 5 mph ()    
Max Wind Speed 13 mph    
Max Gust Speed -    
Visibility 8.7 miles    
Events      
Averages and records for this station are not official NWS values.
T = Trace of Precipitation, MM = Missing Value Source: Averaged Metar Reports

Daily Weather History Graph

Daily Weather History Graph

Search for Another Location

Airport or City:

Astronomy

Sep. 17, 2019 Rise Set
Actual Time 7:07 AM CEST 7:38 PM CEST
Civil Twilight 6:36 AM CEST 8:09 PM CEST
Nautical Twilight 5:58 AM CEST 8:46 PM CEST
Astronomical Twilight 5:20 AM CEST 9:25 PM CEST
Moon 9:20 PM CEST (9/17) 10:07 AM CEST (9/17)
Length of Visible Light 13h 33m
Length of Day
12h 30m
Waning Gibbous, 91% of the Moon is Illuminated
Sep 17
Waning Gibbous
Sep 22
Last Quarter
Sep 28
New
Oct 5
First Quarter
Oct 13
Full

Hourly Weather History & Observations

Time (CEST) Temp. Dew Point Humidity Pressure Visibility Wind Dir Wind Speed Gust Speed Precip Events Conditions
6:50 AM 57.2 °F 51.8 °F 82% 30.09 in - Variable 1.2 mph - N/A   Clear
7:00 AM 55 °F 52 °F 84% 30.11 in 18 mi North 2.2 mph - -  
7:20 AM 55.4 °F 51.8 °F 88% 30.09 in - Calm Calm - N/A   Clear
7:50 AM 55.4 °F 51.8 °F 88% 30.09 in - WNW 2.3 mph - N/A   Clear
8:20 AM 57.2 °F 53.6 °F 88% 30.09 in - Calm Calm - N/A   Clear
8:50 AM 59.0 °F 53.6 °F 82% 30.12 in - Variable 2.3 mph - N/A   Clear
9:00 AM 58 °F 55 °F 85% 30.12 in 12 mi NE 2.2 mph - -   Overcast
9:20 AM 59.0 °F 55.4 °F 88% 30.12 in - North 5.8 mph - N/A   Clear
9:50 AM 60.8 °F 57.2 °F 88% 30.12 in 6.2 mi NNE 5.8 mph - N/A   Partly Cloudy
10:50 AM 62.6 °F 55.4 °F 77% 30.15 in 6.2 mi North 12.7 mph - N/A   Partly Cloudy
11:20 AM 62.6 °F 53.6 °F 72% 30.15 in 6.2 mi NNE 12.7 mph - N/A   Scattered Clouds
11:50 AM 62.6 °F 53.6 °F 72% 30.15 in 6.2 mi North 11.5 mph - N/A   Mostly Cloudy
12:20 PM 62.6 °F 53.6 °F 72% 30.15 in 6.2 mi North 11.5 mph - N/A   Mostly Cloudy
12:50 PM 62.6 °F 51.8 °F 68% 30.15 in 6.2 mi North 11.5 mph - N/A   Mostly Cloudy
1:20 PM 64.4 °F 51.8 °F 64% 30.15 in 6.2 mi North 12.7 mph - N/A   Scattered Clouds
1:50 PM 66.2 °F 53.6 °F 64% 30.15 in 6.2 mi NNE 10.4 mph - N/A   Scattered Clouds
2:20 PM 66.2 °F 53.6 °F 64% 30.12 in 6.2 mi North 9.2 mph - N/A   Mostly Cloudy
2:50 PM 66.2 °F 53.6 °F 64% 30.12 in - NNE 9.2 mph - N/A   Clear
3:00 PM 66 °F 53 °F 54% 30.13 in 19 mi NNE 8.9 mph - -  
3:20 PM 66.2 °F 53.6 °F 64% 30.12 in - North 9.2 mph - N/A   Clear
3:50 PM 66.2 °F 51.8 °F 60% 30.12 in - NNE 9.2 mph - N/A   Clear
4:50 PM 68.0 °F 53.6 °F 60% 30.12 in - North 10.4 mph - N/A   Clear
5:20 PM 68.0 °F 53.6 °F 60% 30.12 in - North 11.5 mph - N/A   Clear
5:50 PM 68.0 °F 53.6 °F 60% 30.09 in - NNE 6.9 mph - N/A   Clear
6:20 PM 68.0 °F 51.8 °F 56% 30.09 in - NE 6.9 mph - N/A   Clear
6:50 PM 66.2 °F 53.6 °F 64% 30.12 in - NE 8.1 mph - N/A   Clear
7:00 PM 65 °F 53 °F 56% 30.11 in 28 mi NE 6.7 mph - -  
7:20 PM 66.2 °F 51.8 °F 60% 30.12 in - ENE 5.8 mph - N/A   Clear
7:50 PM 62.6 °F 53.6 °F 72% 30.12 in - NNE 4.6 mph - N/A   Clear